Regional Weather Roundup
Issued by NWS

Home | Current Version | Previous Version | Graphics & Text | Print | Product List | Glossary On
Versions: 1 2 3 4 5 6 7 8 9 10 11 12 13 14 15 16 17 18 19 20 21 22 23 24 25 26 27 28 29 30 31 32 33 34 35 36 37 38 39 40 41 42 43 44 45 46 47 48 49 50
000
ASUS43 KDTX 140110
RWRMI
MICHIGAN HOURLY REGIONAL WEATHER ROUNDUP
NATIONAL WEATHER SERVICE DETROIT/PONTIAC MI
800 PM EST SAT FEB 13 2016

NOTE: "FAIR" INDICATES FEW OR NO CLOUDS BELOW 12,000 FEET WITH NO
SIGNIFICANT WEATHER AND/OR OBSTRUCTION TO VISIBILITY.

MIZ047>049-052>055-059>063-066>070-074>076-081>083-140200-
SOUTHEAST LOWER MICHIGAN

CITY           SKY/WX    TMP DP  RH WIND       PRES   REMARKS
ADRIAN         CLOUDY    14   3  61 N7        30.46R WCI   4
ALMA           MOCLDY    13   4  67 W6        30.46S WCI   3
ANN ARBOR      MOCLDY    11   2  67 NW5       30.45R WCI   3
BAD AXE        PTCLDY    -1  -7  76 W3        30.44S
CARO           PTCLDY    -4  -8  84 CALM      30.45S
DETROIT CITY   CLEAR     10  -2  58 N5        30.47R WCI   2
DETROIT        MOCLDY    10   5  80 NW5       30.47R WCI   2
FLINT          PTCLDY     5  -2  72 CALM      30.45S
GROSSE ILE     PTCLDY    12   5  73 NW6       30.46R WCI   3
HILLSDALE      FLURRIES  12   4  70 NW6       30.42S WCI   2
HOWELL         PTCLDY     8   4  86 CALM      30.43S

CITY           SKY/WX    TMP DP  RH WIND       PRES   REMARKS
JACKSON        CLOUDY    12   2  64 NW9       30.43S WCI   0
LAMBERTVILLE   CLOUDY    14   7  73 CALM      30.47S
LANSING        MOCLDY    10   0  63 W5        30.45S WCI   2
LAPEER         FAIR       0  -5  79 CALM      30.44S
MASON          MOCLDY    10  -1  61 NW5       30.44S WCI   2
MONROE         CLOUDY    15   2  57 N6        30.46R WCI   6
MT. CLEMENS    PTCLDY     5  -4  63 N3        30.45S
PONTIAC        MOCLDY     7   0  73 CALM      30.42S
PORT HOPE        N/A     11  -3  53 NW18G28   30.43R WCI  -7
PORT HURON     CLEAR     -4  -8  84 CALM      30.47S
TRI CITIES     CLEAR      8   0  69 SW3       30.46S
MIDLAND        FAIR       3  -4  72 CALM      30.45F
TROY           PTCLDY    11   0  61 N3        30.48R
SAGINAW HB     CLEAR      1  -2  85 S5        30.46F WCI  -8
$$
MIZ043>046-050>051-056>058-064>065-071>073-077>080-140200-
SOUTHWEST LOWER MICHIGAN

CITY           SKY/WX    TMP DP  RH WIND       PRES   REMARKS
BATTLE CREEK   CLOUDY    12   4  70 W7        30.45F WCI   1
BENTON HARBOR  CLOUDY    16   5  62 NW6       30.49F WCI   7
BIG RAPIDS     CLOUDY     8   0  68 W5        30.43S WCI   0
COLDWATER      CLOUDY    13   5  70 W7        30.45S WCI   2
FREMONT        CLOUDY    11   3  69 CALM      30.47S
HOLLAND        LGT SNOW  13   8  81 VRB3      30.49R
GRAND RAPIDS   FLURRIES  13   1  59 N8        30.47S WCI   2
IONIA          CLOUDY    13   0  56 NW9       30.46S WCI   0
KALAMAZOO      CLOUDY    13   5  70 W8        30.46F WCI   2
LUDINGTON      CLOUDY    13   4  65 CALM      30.48S
MARSHALL       CLOUDY    12   5  73 W6        30.45S WCI   2
MOUNT PLEASANT PTCLDY    11   2  68 CALM      30.44S
MUSKEGON       FLURRIES  13   3  64 CALM      30.49F
SOUTH HAVEN    FLURRIES  15   7  69 N5        30.49S WCI   8
$$
MIZ016>042-140200-
NORTHERN LOWER MICHIGAN

CITY           SKY/WX    TMP DP  RH WIND       PRES   REMARKS
ALPENA         MOCLDY     2  -9  60 W7        30.43S WCI -11
BEAVER ISLAND  CLOUDY    12   4  68 NW12      30.43S WCI  -2
BELLAIRE       LGT SNOW   9   6  87 CALM      30.45S
CADILLAC       MOCLDY     4   1  84 W5        30.37S WCI  -5
CHARLEVOIX     CLOUDY    14   3  62 NW12      30.45F WCI   0
FRANKFORT      CLOUDY    14   2  60 NW3       30.46S
GAYLORD        PTCLDY     1  -5  75 CALM      30.36S
GRAYLING       PTCLDY    -2  -7  77 CALM      30.39S
HARBOR SPRINGS CLEAR      6   1  76 NW5       30.42S WCI  -2
HOUGHTON LAKE  LGT SNOW   8   3  80 W3        30.39S
MANISTEE       CLOUDY    14   0  52 CALM      30.46F
OSCODA         CLEAR     -3 -11  66 CALM      30.44F
PELLSTON       CLOUDY    -4  -8  83 CALM      30.42S
ROGERS CITY    CLOUDY     6  -5  61 W8        30.43S WCI  -7
TRAVERSE CITY  LGT SNOW  13   5  70 W7        30.44S WCI   3
$$
MIZ007>008-015-140200-
EASTERN UPPER MICHIGAN

CITY           SKY/WX    TMP DP  RH WIND       PRES   REMARKS
KINROSS        CLOUDY     1   0  92 E5        30.40R WCI  -8
MACKINAC ISLAN CLOUDY     8   3  80 W9        30.40F WCI  -6
NEWBERRY       LGT SNOW   5   2  90 W5        30.38F WCI  -4
S. S. MARIE    PTCLDY     1  -8  66 CALM      30.40F
MUNISING         N/A      9   3  77 W7        30.43F WCI  -2
$$
MIZ004>006-011>014-085-140200-
CENTRAL UPPER MICHIGAN

CITY           SKY/WX    TMP DP  RH WIND       PRES   REMARKS
MANISTIQUE     CLEAR      4  -2  75 W5        30.44S WCI  -5
ESCANABA       CLEAR      1 -11  55 CALM      30.47S
MENOMINEE      CLEAR      7  -8  51 CALM      30.46S
SAWYER-GWINN   CLEAR      0  -6  78 NW5       30.40R WCI -10
$$
MIZ001>003-009>011-084-140200-
WESTERN UPPER MICHIGAN

CITY           SKY/WX    TMP DP  RH WIND       PRES   REMARKS
IRON MOUNTAIN  CLEAR     -3 -11  68 CALM      30.39S
HOUGHTON       LGT SNOW   1  -3  83 SW3       30.39S FOG
COPPER HARBOR    N/A      7   1  76 W5        30.43S WCI  -2
IRONWOOD       CLOUDY    -6  -8  92 CALM      30.37S
$$

ABBREVIATIONS USED IN REMARKS
   TC - TEMPERATURE IN CELSIUS
  WCI - WIND CHILL INDEX
   HX - HEAT INDEX
  VSB - VISIBILITY




USA.gov is the U.S. government's official web portal to all federal, state and local government web resources and services.